Location: Home
(42.5358°N, 72.7383°W)
Time: 21:12:16
(UTC-05:00)

Vanguard 2 - Pass Details

Date: 07 December 2021
Orbit: 553 x 2936 km, 32.9° (Epoch: 20 January)

Event Time Altitude Azimuth Distance (km) Brightness Sun altitude
Rises 15:59:47 0° 260° (W) 3,252 12.2 2.0°
Reaches altitude 10° 16:02:15 10° 247° (WSW) 2,547 12.3 1.6°
Maximum altitude 16:07:14 26° 192° (SSW) 2,092 10.4 0.8°
Drops below altitude 10° 16:14:26 10° 141° (SE) 3,796 11.0 -0.3°
Sets 16:19:06 0° 130° (SE) 5,244 11.6 -1.1°
